Location: Bambrugge
(50.9212°N, 3.9299°E)
Time: 14:37:20
(UTC+00:00)

Cosmos 1315 Rocket - Pass Details

Date: 23 May 2024
Orbit: 515 x 542 km, 81.2° (Epoch: 16 June)

Event Time Altitude Azimuth Distance (km) Brightness Sun altitude
Exits shadow 01:39:59 24° 203° (SSW) 1,114 3.8 -13.8°
Maximum altitude 01:42:12 71° 283° (WNW) 561 2.7 -13.6°
Drops below altitude 10° 01:46:08 10° 9° (N) 1,790 6.6 -13.3°
Sets 01:48:19 0° 11° (NNE) 2,690 7.8 -13.2°
